Leadville, CO

7:13 PM MST on November 22, 2019 (GMT -0700)
Lake County

Weather History for KLXV - September, 2019

Change the Weather History Date:

Tuesday, September 24, 2019

  Actual Average Record
Temperature  
Mean Temperature 47 °F -  
Max Temperature 65 °F 58 °F 70 °F (1987)
Min Temperature 28 °F 29 °F 15 °F (1985)
Degree Days  
Heating Degree Days 18 22  
Month to date heating degree days 354 439  
Since 1 July heating degree days 947 1161  
Cooling Degree Days 0 0  
Month to date cooling degree days 0 0  
Year to date cooling degree days 0 0  
Moisture  
Dew Point 16 °F    
Average Humidity 31    
Maximum Humidity 49    
Minimum Humidity 13    
Precipitation  
Precipitation 0.00 in 0.03 in 0.27 in (1999)
Month to date precipitation 0.31 0.91  
Year to date precipitation 12.85 9.86  
Sea Level Pressure  
Sea Level Pressure 29.98 in    
Wind  
Wind Speed 8 mph (North)    
Max Wind Speed 16 mph    
Max Gust Speed 29 mph    
Visibility 10 miles    
Events      
T = Trace of Precipitation, MM = Missing Value Source: NWS Daily Summary

Daily Weather History Graph

Daily Weather History Graph

Search for Another Location

Airport or City:

Astronomy

Sep. 24, 2019 Rise Set
Actual Time 6:54 AM MDT 6:59 PM MDT
Civil Twilight 6:27 AM MDT 7:26 PM MDT
Nautical Twilight 5:56 AM MDT 7:57 PM MDT
Astronomical Twilight 5:24 AM MDT 8:28 PM MDT
Moon 1:45 AM MDT (9/24) 4:45 PM MDT (9/24)
Length of Visible Light 12h 58m
Length of Day
12h 04m
Waning Crescent, 22% of the Moon is Illuminated
Sep 24
Waning Crescent
Sep 28
New
Oct 5
First Quarter
Oct 13
Full
Oct 21
Last Quarter

Hourly Weather History & Observations

Time (MDT) Temp. Windchill Dew Point Humidity Pressure Visibility Wind Dir Wind Speed Gust Speed Precip Events Conditions
12:53 AM 37.0 °F 31.0 °F 15.1 °F 41% 29.97 in 10.0 mi ENE 8.1 mph - N/A   Clear
1:53 AM 37.0 °F 31.0 °F 14.0 °F 39% 29.98 in 10.0 mi ENE 8.1 mph - N/A   Clear
2:53 AM 37.0 °F 31.0 °F 14.0 °F 39% 29.99 in 10.0 mi ENE 8.1 mph - N/A   Clear
3:53 AM 33.1 °F 27.7 °F 14.0 °F 46% 30.01 in 10.0 mi NNE 5.8 mph - N/A   Clear
4:53 AM 33.1 °F 27.7 °F 14.0 °F 46% 30.01 in 10.0 mi NE 5.8 mph - N/A   Clear
5:53 AM 30.9 °F 23.5 °F 14.0 °F 50% 30.04 in 10.0 mi NE 8.1 mph - N/A   Clear
6:53 AM 30.0 °F 23.2 °F 14.0 °F 51% 30.09 in 10.0 mi NNE 6.9 mph - N/A   Clear
7:53 AM 33.1 °F 27.7 °F 16.0 °F 50% 30.10 in 10.0 mi NE 5.8 mph - N/A   Clear
8:53 AM 44.1 °F - 18.0 °F 35% 30.04 in 10.0 mi Calm Calm - N/A   Clear
9:53 AM 51.1 °F - 18.0 °F 27% 30.02 in 10.0 mi Calm Calm - N/A   Clear
10:53 AM 55.0 °F - 17.1 °F 23% 30.02 in 10.0 mi North - - N/A   Clear
11:53 AM 57.9 °F - 17.1 °F 20% 29.95 in 10.0 mi NW 11.5 mph 18.4 mph N/A   Clear
12:53 PM 59.0 °F - 15.1 °F 18% 29.94 in 10.0 mi North - - N/A   Clear
1:53 PM 62.1 °F - 12.0 °F 14% 29.89 in 10.0 mi WNW 11.5 mph 24.2 mph N/A   Clear
2:53 PM 63.0 °F - 12.9 °F 14% 29.87 in 10.0 mi WNW 13.8 mph 23.0 mph N/A   Clear
3:53 PM 64.0 °F - 14.0 °F 14% 29.88 in 10.0 mi WNW 11.5 mph 19.6 mph N/A   Clear
4:53 PM 63.0 °F - 15.1 °F 16% 29.89 in 10.0 mi WNW 13.8 mph 20.7 mph N/A   Clear
5:53 PM 61.0 °F - 16.0 °F 17% 29.93 in 10.0 mi WNW 12.7 mph - N/A   Clear
6:53 PM 55.9 °F - 19.0 °F 24% 29.99 in 10.0 mi NNW 6.9 mph - N/A   Clear
7:53 PM 50.0 °F - 19.0 °F 29% 30.00 in 10.0 mi NNE 6.9 mph - N/A   Clear
8:53 PM 46.0 °F 43.1 °F 19.0 °F 34% 29.97 in 10.0 mi NNE 5.8 mph - N/A   Clear
9:53 PM 41.0 °F 39.0 °F 19.0 °F 41% 29.97 in 10.0 mi Variable 3.5 mph - N/A   Clear
10:53 PM 39.0 °F 33.4 °F 19.0 °F 45% 29.95 in 10.0 mi ENE 8.1 mph - N/A   Clear
11:53 PM 39.9 °F 35.1 °F 19.0 °F 43% 29.92 in 10.0 mi ENE 6.9 mph - N/A   Clear